www.pogodaiklimat.ru
Время
и дата
05:56 07.12
06:56 07.12
07:56 07.12
08:56 07.12
09:56 07.12
10:56 07.12
11:56 07.12
12:56 07.12
13:56 07.12
14:56 07.12
15:56 07.12
16:56 07.12
17:56 07.12
18:56 07.12
19:56 07.12
20:56 07.12
21:56 07.12
22:56 07.12
23:56 07.12
00:56 08.12
01:56 08.12
02:56 08.12
03:56 08.12
04:56 08.12
05:56 08.12
06:56 08.12
07:56 08.12
08:56 08.12
09:56 08.12
10:56 08.12
11:56 08.12
12:56 08.12
13:56 08.12
14:56 08.12
15:56 08.12
16:56 08.12
17:56 08.12
18:56 08.12
19:56 08.12
20:56 08.12
21:56 08.12
22:56 08.12
23:56 08.12
00:56 09.12
01:56 09.12
02:56 09.12
03:56 09.12
04:56 09.12
Ветер
(напр.,м/с)
Видим. Явления Облачность Т
(С)
Тd
(С)
f
(%)
Тe
(С)
Тes
(С)
Комфортность P
(гПа)
Po
(гПа)
Тmin
(С)
Tmax
(С)
R
(мм)
R24
(мм)
S
(см)
ЮВ 1 16 км 5/5 720 м +23.9 +21.1 84 +30 +30 очень
душно
1017.2 1016.8
ЮВ 1 16 км 5/5 870 м +23.9 +21.1 84 +30 +30 очень
душно
1017.6 1017.1
ЮВ 1 16 км 5/5 870 м
[Ac]
+25.0 +21.7 82 +32 +32 очень
душно
1018.1 1017.8 +23.3 +25.0 0.3 3.3
нст 1 16 км 2/2 990 м
[Ac]
+27.2 +22.2 74 +35 +36 очень
душно
1018.6 1018.1
В 2 16 км 5/5 930 м
[Ac]
+27.8 +21.7 69 +36 +37 очень
душно
1018.9 1018.5
В 3
{4}
16 км 5/5 930 м
[Ac]
+29.4 +20.0 57 +36 +37 очень
душно
1018.3 1018.1
В 4 16 км 5/5 1020 м
[Ac]
+29.4 +21.1 61 +37 +38 очень
душно
1017.9 1017.5
В 3 16 км 5/2 1140 м
[Ac]
+29.4 +21.1 61 +37 +39 очень
душно
1017.1 1016.8
В 4 16 км 5/2 930 м
[Ac]
+29.4 +20.6 59 +36 +38 очень
душно
1016.4 1016.1 +25.0 +30.0
В 3 16 км 8/5 930 м
[Ac]
+28.9 +20.6 61 +36 +37 очень
душно
1015.9 1015.4
В 3 16 км 8/5 870 м
[Ac]
+27.8 +21.1 67 +35 +36 очень
душно
1015.5 1015.1
В 3 16 км 8/5 900 м
[Ac]
+27.8 +21.7 69 +36 +36 очень
душно
1015.9 1015.4
В 3 16 км 8/5 840 м
[Ac]
+27.8 +21.1 67 +35 +35 очень
душно
1016.3 1016.1
В 2 16 км 5/5 840 м +26.7 +21.1 71 +34 +34 очень
душно
1016.4 1016.1
В 2 16 км 5/5 900 м +26.7 +21.1 71 +34 +34 очень
душно
1017.1 1016.8 +26.7 +29.4 0.3
В 2 16 км 5/5 780 м +27.2 +21.7 72 +35 +35 очень
душно
1017.4 1017.1
В 2 16 км 5/5 870 м +27.2 +21.7 72 +35 +35 очень
душно
1017.6 1017.1
В 3 16 км 2/2 780 м +26.7 +20.6 69 +33 +33 очень
душно
1017.6 1017.5
В 3 16 км 2/2 960 м +26.7 +20.0 67 +33 +33 очень
душно
1016.9 1016.5
В 1 16 км 5/5 810 м +26.7 +20.6 69 +33 +33 очень
душно
1016.6 1016.5
ЮВ 1 16 км 2/2 840 м +25.6 +20.6 74 +32 +32 очень
душно
1016.0 1015.8 +25.6 +27.2
В 1 16 км 5/5 960 м +25.0 +21.7 82 +32 +32 очень
душно
1015.5 1015.1
В 2 16 км 5/5 750 м +25.0 +20.6 77 +31 +31 очень
душно
1015.6 1015.1
В 2 16 км 5/5 750 м +25.0 +20.0 74 +31 +31 очень
душно
1016.0 1015.8 1.0
В 2 16 км 5/5 720 м +25.0 +20.6 77 +31 +31 очень
душно
1016.4 1016.1
В 2 14 км дождь 5/5 930 м +25.6 +20.6 74 +32 +32 очень
душно
1016.9 1016.5
СВ 2 16 км 5/5 720 м +25.6 +21.7 79 +33 +33 очень
душно
1017.2 1016.8 +24.4 +26.1 3.0 3.3
СВ 2 16 км 5/5 750 м +27.2 +22.2 74 +35 +36 очень
душно
1018.0 1017.8
В 3 16 км 5/5 870 м +27.8 +21.7 69 +36 +36 очень
душно
1018.2 1017.8
В 3 16 км слабый дождь 5/5 900 м
[Ac]
+27.8 +22.2 72 +36 +37 очень
душно
1018.1 1017.8
В 3 16 км 5/5 960 м
[Ac]
+28.9 +21.7 65 +37 +38 очень
душно
1017.4 1017.1
СВ 3 16 км 5/2 900 м
[Ac]
+28.9 +21.7 65 +37 +39 очень
душно
1016.6 1016.1
В 4 16 км 5/2 840 м
[Ac]
+28.9 +21.7 65 +37 +38 очень
душно
1015.6 1015.4 +24.4 +30.0
ЮВ 2 16 км 5/5 990 м +28.9 +20.6 61 +36 +39 очень
душно
1015.4 1015.1
В 2 16 км 5/5 870 м
[Ac]
+27.8 +21.1 67 +35 +37 очень
душно
1015.2 1014.8
В 3 16 км 5/5 870 м +27.8 +21.1 67 +35 +36 очень
душно
1015.2 1014.8
В 2 16 км 5/5 960 м +26.7 +21.1 71 +34 +34 очень
душно
1015.6 1015.4
В 2 16 км 2/2 960 м +26.1 +20.0 69 +32 +32 очень
душно
1015.9 1015.4
ЮВ 1 16 км 2/2 900 м +26.7 +20.6 69 +33 +33 очень
душно
1016.6 1016.1 +26.1 +29.4
штиль 0 16 км 2/2 900 м +26.1 +21.1 74 +33 +33 очень
душно
1016.9 1016.5
штиль 0 16 км 2/2 960 м
[Ac]
+26.1 +21.1 74 +33 +33 очень
душно
1017.6 1017.5
ЮВ 1 16 км 5/5 900 м +25.6 +21.7 79 +33 +33 очень
душно
1017.2 1016.8 0.8
штиль 0 16 км 5/5 810 м +25.0 +21.7 82 +32 +32 очень
душно
1017.0 1016.8
ЮВ 1 16 км 8/5 990 м
[Ac]
+25.0 +21.7 82 +32 +32 очень
душно
1016.8 1016.5
Ю 1 16 км 5/5 810 м
[Ac]
+24.4 +21.7 85 +31 +31 очень
душно
1016.3 1016.1 +24.4 +26.7 0.8
Ю 1 16 км 5/5 810 м +25.0 +22.2 84 +32 +32 очень
душно
1016.0 1015.8
ЮВ 1 16 км 8/5 810 м
[Ac]
+24.4 +21.7 85 +31 +31 очень
душно
1015.6 1015.4
штиль 0 16 км 5/5 750 м
[Ac]
+24.4 +21.7 85 +31 +31 очень
душно
1015.9 1015.4 4.8
Местоположение метеостанции Luis Munoz Marin International Airport: широта 18.4500 долгота -66.0000 высота над уровнем моря 3 м.
В архиве по умолчанию представлена погода в Сан-Хуане за последние 1-2 суток. Обновление информации о фактической погоде в базе происходит ежечасно! Архивные данные за месяц целиком и за предыдущие месяцы Вы можете получить, выбрав интересующий диапазон дат из раскрывающегося списка и нажав кнопку "Ввод!".
Внимание! Архив погоды МЕТАР в базе сайта по станциям, не включенным в климатический монитор, хранится не более 60 дней. Нет смысла пытаться выбрать более раннюю дату.
*Определитесь, кто Вы:
Внимание! Время в таблицах - местное (без учета летнего времени). Для получения всемирного времени необходимо вычесть поправку, которая равна -4 ч.
Смотрите также архив погоды в соседних городах и на ближайших метеорологических станциях:
Партнеры нашего сайта:      
Пояснения к столбцам:
  • Ветер - указаны скорость ветра в м/с - средняя за 10 мин, порывы в срок и между сроками (в фигурных скобках) и направление, откуда дует ветер: С - северный,
  • СВ - северо-восточный, В - восточный, ЮВ - юго-восточный, Ю - южный, ЮЗ - юго-западный, З - западный, СЗ - северо-западный.
  • Видимость - горизонтальная дальность видимости в метрах или километрах. При видимости от 1 до 10 км при отсутствии осадков обычно наблюдается дымка, при ухудшении видимости до 1 км и менее - туман. В сухую погоду видимость может ухудшаться дымом, пылью или мглою.
  • Явления - указаны атмосферные явления, наблюдавшиеся в срок или в последний час перед сроком; фигурными скобками обозначены явления, наблюдавшиеся между сроками (за 1-3 часа до срока); квадратными скобками обозначены град или гололедные отложения с указанием их диаметра в мм.
  • Облачность - указаны через наклонную черту общая и нижняя облачность в баллах и высота нижней границы облаков в метрах; квадратными скобками обозначены формы облаков: Ci - перистые, Cs - перисто-слоистые, Cc - перисто-кучевые, Ac - высококучевые, As - высокослоистые, Sc - слоисто-кучевые, Ns - слоисто-дождевые, Cu - кучевые, Cb - кучево-дождевые. Подробнее классификацию облаков см. в Атласе облаков (PDF).
  • T - Температура воздуха - температура, измеренная на высоте 2 м над землей.
  • Td - Температура точки росы - температура, при понижении до которой содержащийся в воздухе водяной пар достигнет насыщения.
  • f - Относительная влажность воздуха - влажноcть воздуха, измеренная на высоте 2 м над землей.
  • Te - Эффективная температура - температура, которую ощущает одетый по сезону человек в тени. Характеристика душности погоды. При расчете учитывается влияние влажности воздуха и скорости ветра на теплоощущения человека.
  • Tes - Эффективная температура на солнце - температура, которую ощущает человек, с поправкой на солнечный нагрев. Характеристика знойности погоды. Зависит от высоты солнца над горизонтом, облачности и скорости ветра. Ночью, в пасмурную погоду, а также при ветре 12 м/с и более поправка равна нулю.
  • P - Атмосферное давление - приведенное к уровню моря атмосферное давление.
  • Po - Атмосферное давление - измеренное на уровне метеостанции атмосферное давление.
  • Tmin - Минимальная температура - минимум температуры воздуха на высоте 2 м над землей.
  • Tmax - Максимальная температура - максимум температуры воздуха на высоте 2 м над землей.
  • R - Количество осадков - Количество выпавших осадков за период времени, мм. При наведении курсора мыши на число - период времени, за который выпало указанное количество осадков.
  • R24 - Количество осадков - Количество выпавших осадков за 24 часа, мм.
  • S - Снежный покров - Высота снежного покрова, см. При наведении курсора мыши на число - состояние снежного покрова и степень покрытия местности в баллах.